Location: Unspecified
(41.5000°N, 0.0000°E)
Time: 12:02:36
(UTC+00:00)

SR - Visible Passes

Search period start: 25 June 2019 00:00
Search period end: 05 July 2019 00:00
Orbit: 582 x 874 km, 66.7° (Epoch: 24 June)

Date Brightness Start Highest point End Pass type
(mag) Time Alt. Az. Time Alt. Az. Time Alt. Az.
25 Jun ? 02:23:56 26° S 02:25:53 43° ESE 02:29:57 10° NE visible
26 Jun ? 01:35:41 18° SE 01:36:31 19° ESE 01:39:33 10° ENE visible
26 Jun ? 03:15:06 15° WSW 03:18:13 39° NW 03:22:18 10° NNE visible
27 Jun ? 02:26:49 35° SSW 02:28:31 87° WNW 02:32:51 10° NNE visible
28 Jun ? 01:38:29 38° SE 01:39:01 40° ESE 01:43:03 10° NE visible
28 Jun ? 03:17:55 10° W 03:21:12 21° NW 03:24:34 10° N visible
29 Jun ? 00:50:07 17° E 00:50:07 17° E 00:52:34 10° ENE visible
29 Jun ? 02:29:31 27° WSW 02:31:19 42° NW 02:35:28 10° NNE visible
30 Jun ? 01:41:07 68° SSW 01:41:38 87° ESE 01:46:00 10° NNE visible
30 Jun ? 03:22:31 10° WNW 03:24:22 12° NW 03:26:14 10° NNW visible
01 Jul ? 00:52:41 35° E 00:52:41 35° E 00:56:08 10° NE visible
01 Jul ? 02:32:04 16° W 02:34:17 23° NW 02:37:47 10° N visible
02 Jul ? 00:04:12 14° E 00:04:12 14° E 00:05:33 10° ENE visible
02 Jul ? 01:43:36 39° W 01:44:25 45° NW 01:48:38 10° NNE visible
03 Jul ? 00:55:06 74° ENE 00:55:06 74° ENE 00:59:08 10° NNE visible
03 Jul ? 02:35:21 10° WNW 02:37:26 13° NW 02:39:33 10° NNW visible
04 Jul ? 00:06:33 28° ENE 00:06:33 28° ENE 00:09:13 10° NE visible
04 Jul ? 01:45:56 20° WNW 01:47:23 24° NW 01:50:58 10° N visible
04 Jul ? 23:17:58 12° ENE 23:17:58 12° ENE 23:18:31 10° ENE visible
